Terminal Aerodrome Forecast
Issued by NWS Amarillo, TX

Home | Current Version | Previous Version | Text Only | Print | Product List | Glossary On
Versions: 1 2 3 4 5 6 7 8 9 10 11 12 13 14
000
FTUS44 KAMA 260500
TAFDHT
TAF
KDHT 260520Z 2606/2706 21011KT P6SM SCT300
     FM260900 36015KT 4SM BR OVC008
      TEMPO 2609/2612 P6SM NSW SCT008
     FM261200 02014KT 4SM BR OVC008 PROB30 2618/2624 2SM -SN OVC004=

USA.gov is the U.S. government's official web portal to all federal, state and local government web resources and services.